Tracking 35275 objects as of 8-Sep-2026
HD Live streaming from Space Station
objects crossing your sky now

SL-12 R/B(1)


SL-12 R/B(1) is no longer on orbit


NORAD ID: 15220
Int'l Code: 1984-090B
Launch date: August 24, 1984
Source: Commonwealth of Independent States (former USSR) (CIS)
Launch site: TYURATAM MISSILE AND SPACE COMPLEX (TTMTR)
Decay date: 1984-08-27

Note: This is a ROCKET BODY
Your satellite tracking list
Your tracking list is empty




NASA's NSSDC Master Catalog

Two Line Element Set (TLE):
1 15220U 84090  B 84240.19830433  .26768858 +58363-4 +13012-3 0  9999
2 15220 051.6097 266.8716 0006862 247.2392 113.2914 16.55318306000376
Source of the keplerian elements: AFSPC